Theta_e
312 312 313 313 313 314 314 314 314 314 314 314 314 315 315 315 314 300 296 303 306 312 312 298 297 296 296 292 293 292 282 279 280 282 283 286 285 287 288 284 286 288 287 292 297
312 313 313 313 314 314 314 314 314 314 314 313 313 313 314 314 305 296 306 311 311 312 298 295 293 294 289 290 289 286 280 281 283 282 282 285 285 285 285 285 285 288 293 296 297
311 312 313 313 314 314 314 314 313 313 313 313 313 313 313 310 297 294 309 310 311 309 300 297 296 293 288 290 288 286 282 285 285 287 287 287 286 288 286 284 285 287 290 293 294
311 311 312 313 314 314 314 313 313 312 312 313 312 312 312 303 284 297 308 308 309 304 300 297 293 288 286 285 290 284 288 288 289 290 289 286 288 287 287 287 291 290 291 293 293
311 311 312 313 314 314 313 312 313 312 311 312 312 311 303 291 291 300 309 305 301 300 296 294 291 289 285 288 289 286 288 291 291 291 289 290 287 286 287 290 291 293 294 292 292
311 311 312 313 313 313 311 310 311 311 311 311 311 311 297 285 300 299 299 300 299 298 295 295 292 292 289 288 286 288 288 288 290 290 290 288 286 286 287 290 290 292 292 292 291
312 311 312 312 313 313 310 309 310 310 310 310 309 304 293 290 297 297 299 298 299 299 295 296 296 292 290 288 291 289 284 287 288 289 287 287 283 283 288 290 290 291 291 291 290
313 312 312 312 313 313 310 308 308 307 309 309 307 298 288 297 295 298 298 298 300 301 298 298 298 294 290 290 289 285 283 278 287 288 289 286 278 286 289 287 287 288 289 289 289
313 313 313 312 313 313 311 307 309 308 307 307 295 291 285 299 294 296 297 295 297 299 298 299 296 288 289 282 279 279 270 277 281 288 287 284 280 286 289 288 285 285 285 287 288
314 313 313 312 313 312 312 309 308 304 303 298 294 288 290 289 293 294 296 297 295 294 294 292 288 281 279 276 268 270 271 278 277 284 286 282 281 286 286 286 284 283 284 286 286
315 314 314 312 312 311 305 297 292 293 291 285 286 288 290 293 295 294 297 295 295 292 282 287 280 272 278 280 281 280 277 276 280 286 282 281 281 283 286 284 283 282 282 284 285
316 315 313 311 310 309 298 291 290 292 284 290 289 290 292 292 289 293 297 290 283 278 285 281 276 283 285 285 281 279 273 273 280 284 282 279 279 283 285 283 283 283 281 283 284
317 315 312 310 310 299 293 292 297 295 284 286 288 288 289 292 288 289 293 290 281 276 276 275 283 286 284 281 278 277 273 274 276 279 280 278 275 280 283 284 285 284 283 283 283
317 314 309 309 303 297 292 297 297 294 278 284 284 287 291 291 287 293 294 289 285 275 280 279 285 283 281 279 279 270 282 280 278 270 265 278 265 276 280 282 283 282 281 281 281
317 310 305 307 297 294 294 297 295 292 273 283 283 291 290 287 287 289 293 289 283 279 275 276 280 280 277 281 282 277 282 280 279 266 270 270 265 274 279 279 278 280 281 281 281
314 308 306 303 295 294 296 295 293 282 273 276 282 281 281 286 287 288 289 290 288 282 281 278 284 281 281 283 283 284 277 277 274 266 261 266 266 271 274 277 277 280 280 281 281
310 306 300 299 295 296 295 292 282 275 280 277 277 280 279 279 282 284 283 282 277 270 269 277 279 281 283 279 283 277 267 260 261 261 264 264 268 272 277 278 278 278 279 280 281
306 302 298 297 298 297 295 288 278 279 284 280 279 279 277 279 280 279 279 276 280 277 268 265 267 273 283 279 273 275 269 262 256 260 263 263 264 272 279 280 280 280 280 281 280
304 298 295 294 298 296 291 284 277 285 282 279 280 274 273 279 275 275 277 276 279 277 270 266 270 280 281 282 279 272 266 275 261 259 263 264 269 277 279 273 277 278 279 278 279
299 296 292 297 297 296 286 283 285 283 283 280 278 278 269 273 275 272 276 280 280 281 278 274 265 273 278 282 279 274 277 265 263 257 256 262 261 270 269 269 272 275 274 275 276
299 291 293 297 296 288 285 286 286 285 285 282 278 273 276 271 275 273 277 280 282 280 281 274 267 270 277 268 269 268 267 267 266 268 260 258 264 270 270 268 269 272 274 274 273
297 286 293 296 286 285 285 286 285 283 285 283 279 279 275 276 276 273 277 279 283 279 276 279 274 266 270 279 281 276 270 273 264 260 266 267 269 268 269 270 269 273 273 274 271
289 287 294 294 285 284 284 283 282 283 283 281 278 281 280 274 274 278 279 283 284 281 278 279 267 261 268 273 276 271 275 276 269 272 267 261 266 269 265 266 269 271 273 271 272
289 285 285 287 287 286 285 284 281 284 282 282 282 281 278 274 279 275 279 281 283 282 285 283 276 268 266 266 265 268 273 276 271 261 264 267 270 276 276 268 269 269 269 266 267
292 286 286 282 284 285 286 286 283 282 281 282 279 279 277 275 275 273 278 279 281 284 281 277 268 272 273 272 270 273 272 271 270 272 265 272 265 273 277 273 276 270 263 269 267
288 287 286 286 286 285 287 284 284 284 280 280 277 280 280 274 279 276 278 279 277 279 279 279 265 267 264 273 274 270 273 272 271 272 270 273 272 279 279 264 266 268 262 268 263
294 293 292 288 281 284 284 284 284 285 284 284 281 280 278 281 282 281 281 281 280 278 277 274 267 263 261 269 267 266 267 267 267 265 267 264 270 262 266 265 265 266 264 267 263
Wind_Speed
13 13 13 14 14 14 13 13 12 12 12 12 12 12 14 14 12 12 10 8 11 18 19 8 8 6 5 4 5 3 5 1 5 5 4 6 6 7 4 2 3 2 2 4 5
13 13 13 13 13 14 14 13 13 12 11 11 11 11 11 11 2 11 11 15 16 18 9 7 8 9 4 3 4 5 4 1 3 1 2 6 7 7 5 8 3 5 7 7 7
13 13 13 14 15 15 14 14 12 10 10 10 9 9 9 5 2 5 17 17 18 17 6 3 6 3 5 5 5 4 3 2 2 3 3 5 7 6 5 6 3 6 6 8 6
12 12 13 14 15 15 15 14 11 9 9 10 10 9 8 2 3 4 15 16 16 14 10 7 5 2 4 4 2 3 4 3 3 3 4 5 5 8 6 9 9 7 2 3 6
11 12 13 14 14 15 15 13 10 8 7 9 10 10 4 6 3 6 10 11 8 9 11 6 8 4 3 2 2 3 3 5 4 6 4 6 6 7 13 12 11 4 5 5 3
10 12 13 14 15 15 16 12 9 7 8 9 11 10 2 6 4 7 9 6 7 8 8 8 4 3 2 2 2 2 4 7 6 4 4 4 5 2 8 6 9 6 6 5 6
9 12 13 14 15 15 15 11 8 8 8 9 11 3 6 3 3 6 7 2 4 5 4 4 5 4 2 2 1 2 4 7 5 4 3 2 9 6 9 8 7 7 6 6 5
8 9 12 14 15 15 15 10 6 7 8 8 8 2 3 0 3 6 6 3 7 3 3 4 5 3 2 1 0 4 5 5 3 4 2 6 9 10 9 6 9 8 5 4 5
6 8 11 14 15 16 14 9 7 8 7 9 3 2 3 1 3 4 2 3 6 2 3 4 3 1 3 3 5 8 1 4 10 6 4 3 13 12 7 8 6 4 3 4 6
6 7 9 12 16 17 16 3 5 7 3 3 2 6 4 4 4 4 2 2 3 6 5 3 3 4 6 6 2 4 2 3 5 6 9 11 17 23 7 6 5 5 3 5 5
7 7 9 12 16 19 9 4 7 4 8 2 0 1 2 7 2 1 3 4 6 4 4 4 6 2 3 2 2 3 3 6 7 9 7 14 20 23 13 5 6 4 1 4 6
7 7 9 11 13 15 5 6 2 3 3 1 1 1 1 2 3 4 7 5 7 1 5 6 1 2 2 2 2 3 2 7 6 3 8 11 17 17 8 6 6 5 3 6 7
7 6 8 11 11 5 5 3 1 1 3 0 1 2 1 3 2 4 4 3 5 3 2 5 3 2 1 2 2 3 4 3 8 5 6 6 10 5 3 5 5 2 3 5 8
7 2 6 13 3 1 3 3 2 1 6 2 1 2 1 1 3 2 2 2 2 4 1 4 3 3 2 2 4 2 1 3 8 6 3 6 7 7 3 5 3 5 7 8 7
4 6 4 8 2 2 2 5 3 3 5 2 0 1 1 2 2 2 1 1 2 3 6 6 1 1 1 3 4 8 8 10 6 3 4 6 4 10 1 4 1 6 9 9 7
10 8 2 2 3 1 3 4 2 7 7 3 2 2 5 2 2 1 1 0 1 2 2 5 1 2 2 4 2 5 5 7 4 4 3 5 6 10 4 3 3 6 9 10 9
12 7 4 2 0 3 3 2 6 4 2 5 2 1 2 3 2 3 2 2 1 5 4 5 2 0 1 3 5 8 7 6 8 6 7 4 2 13 3 4 3 7 9 8 11
14 8 6 3 3 4 1 5 3 4 3 2 2 1 1 2 1 4 3 2 1 2 3 4 9 2 2 3 5 3 6 7 5 4 7 2 7 9 6 5 3 6 8 8 12
11 2 3 3 4 2 4 1 8 4 2 1 2 5 5 1 2 5 3 3 2 3 6 4 7 0 2 2 5 4 2 3 3 1 3 5 9 8 3 5 6 8 9 11 12
4 3 2 4 4 2 3 5 4 1 0 1 4 4 3 4 1 4 3 2 3 2 4 3 4 3 3 3 4 6 2 4 4 3 7 8 7 10 6 8 7 9 9 11 9
3 3 1 3 2 3 3 5 2 1 1 2 3 2 5 4 4 3 4 2 3 3 4 4 5 7 3 4 9 2 2 2 4 5 5 5 10 9 9 8 7 8 10 10 10
2 2 1 2 2 0 2 3 1 2 0 2 1 3 5 4 2 4 5 5 5 6 5 4 4 4 11 4 5 6 8 5 6 7 5 3 14 4 7 8 7 10 10 8 7
3 2 1 1 3 3 1 2 2 4 3 3 3 3 1 5 2 6 3 2 5 6 6 5 2 4 9 6 5 2 5 4 3 2 8 4 12 4 4 5 7 9 11 7 7
3 3 1 1 1 3 3 3 3 1 1 2 2 2 2 2 2 4 3 2 5 5 4 3 3 8 9 9 4 4 5 8 7 4 5 13 19 27 14 8 7 9 8 6 5
2 4 4 4 5 5 5 4 4 3 2 5 2 6 6 4 2 6 5 2 4 6 3 4 5 4 7 10 7 15 16 10 12 15 8 20 8 20 18 10 12 7 5 7 7
3 3 1 3 2 8 8 7 9 5 8 6 6 6 8 7 9 8 6 5 6 3 5 4 5 2 7 8 9 9 18 16 19 15 16 22 26 25 23 2 4 7 6 6 5
1 1 4 5 4 5 7 8 8 7 8 5 9 5 10 17 7 4 4 2 4 8 8 6 4 3 7 3 7 9 11 7 6 5 8 8 18 2 5 5 6 6 7 6 5
Wind_Direction
13 7 5 5 4 1 0 1 357 355 351 345 342 339 336 342 333 36 42 338 336 330 325 320 7 345 26 52 42 23 65 21 346 14 285 358 19 349 295 273 346 274 301 336 352
12 9 6 2 0 357 357 355 351 349 345 342 338 335 330 335 325 58 357 348 342 331 336 360 341 346 40 40 15 69 92 141 22 45 344 324 21 323 339 321 291 304 331 352 23
9 5 3 360 356 355 353 350 344 342 344 343 342 339 335 338 52 10 354 352 343 336 299 262 273 340 57 50 12 345 108 352 38 50 25 328 334 337 350 315 214 310 305 352 13
7 3 359 358 355 353 353 351 349 346 346 346 347 344 340 320 78 340 358 351 344 339 8 353 7 31 75 75 45 93 83 53 300 343 336 312 290 314 233 244 270 286 295 349 340
3 0 356 354 353 352 352 351 353 354 351 345 348 349 351 49 56 337 346 1 346 352 30 13 37 354 91 61 70 49 326 315 299 312 267 284 266 260 281 267 280 261 314 303 318
358 357 354 351 350 350 346 345 347 349 344 342 342 341 13 67 289 354 348 8 3 13 30 23 25 330 61 57 76 275 277 268 273 229 232 268 270 70 274 267 296 271 260 294 86
354 353 351 348 349 345 346 337 331 336 329 332 333 315 53 125 5 0 358 355 5 26 13 359 350 32 334 98 248 265 329 329 221 211 231 78 317 209 263 275 255 263 272 81 47
343 342 344 344 342 339 345 341 313 322 315 310 316 324 91 116 337 13 356 12 356 24 19 323 347 306 65 134 279 342 39 9 298 174 224 89 270 268 287 268 275 278 89 50 9
334 337 345 341 335 332 335 322 290 299 291 293 347 48 24 318 26 334 9 346 308 313 337 312 310 7 21 45 25 9 253 308 323 325 359 189 291 268 265 296 291 100 84 35 355
324 331 337 341 336 331 329 272 288 318 257 285 12 51 20 337 315 317 268 348 343 341 357 344 18 59 25 57 215 263 346 284 271 287 321 290 274 286 283 263 180 144 77 25 329
317 325 340 343 343 338 352 37 17 3 31 95 233 210 48 312 298 326 345 346 3 31 31 351 61 146 157 112 158 250 250 258 259 269 328 276 283 284 293 166 165 140 39 335 314
303 319 334 338 345 343 27 72 182 208 333 305 145 218 127 346 304 5 10 63 55 65 350 19 147 128 77 267 283 241 253 282 290 344 323 296 285 284 247 203 173 147 350 321 316
280 302 332 332 337 44 70 97 316 223 104 150 76 26 297 358 340 349 37 88 97 38 36 155 178 136 121 324 6 285 190 278 268 333 269 291 294 324 28 106 137 149 30 325 326
263 231 338 321 30 325 53 337 272 357 64 290 40 357 322 300 35 72 56 119 97 196 225 220 214 143 62 258 115 301 242 308 312 38 272 66 278 297 199 182 155 32 345 323 299
264 120 40 41 295 49 312 332 306 59 14 267 348 312 248 69 292 206 114 98 268 225 91 260 132 159 128 219 134 240 325 292 289 148 19 325 63 269 184 225 202 350 330 318 322
139 141 148 67 59 286 337 337 58 42 266 325 343 350 23 326 194 273 270 190 326 197 248 239 159 187 245 289 209 301 332 22 68 100 9 245 114 280 233 201 344 311 313 305 306
132 99 65 36 219 311 349 43 32 141 353 298 325 48 104 305 342 11 317 287 201 45 335 328 299 90 260 8 11 38 42 353 356 7 226 244 348 243 214 132 189 280 290 298 313
119 82 41 39 357 349 360 49 176 238 246 255 242 300 257 1 16 329 312 285 175 131 94 109 332 132 289 137 186 46 124 143 249 283 270 16 229 254 182 156 220 275 277 304 317
117 72 64 348 339 2 70 145 207 208 198 219 136 62 315 233 160 38 237 215 155 140 155 101 282 134 45 59 111 267 68 166 107 139 9 261 289 297 180 314 322 296 342 313 314
103 102 50 325 346 29 83 246 228 148 120 231 165 135 211 261 27 81 238 251 146 121 121 199 341 236 268 81 4 141 170 33 8 346 301 287 279 244 268 265 304 335 299 287 285
90 84 333 352 34 55 202 232 259 233 22 185 225 247 216 208 172 237 242 249 123 133 95 127 105 289 62 201 180 19 346 14 127 152 196 294 265 225 220 207 238 276 269 272 279
148 108 315 315 79 232 198 224 191 200 144 183 228 186 182 174 228 245 234 203 138 142 176 199 151 258 229 266 157 165 189 160 130 271 228 196 267 236 193 203 206 258 268 280 264
107 96 344 322 187 215 211 243 246 201 217 172 232 231 121 187 242 217 226 160 147 166 176 181 289 353 340 351 358 202 222 171 134 109 218 150 266 300 299 274 255 254 278 294 315
130 140 321 92 249 183 170 224 256 321 240 185 216 122 122 249 242 288 262 197 189 190 169 143 215 184 205 211 149 264 227 203 150 150 223 226 274 283 275 268 275 267 261 278 320
180 231 180 178 219 184 172 172 177 252 224 174 308 211 172 220 197 227 225 199 198 203 188 140 222 244 252 252 218 254 253 206 203 216 192 268 222 267 281 291 289 266 312 317 338
168 156 2 176 140 172 192 206 216 182 161 227 206 197 188 197 193 202 182 197 205 166 172 185 259 97 284 255 245 256 252 224 223 242 254 258 276 274 280 304 283 265 282 293 295
162 41 140 179 182 162 187 203 213 157 220 192 196 159 199 231 226 236 219 199 195 166 189 169 148 65 265 348 314 289 237 172 187 210 159 173 231 295 284 263 251 265 234 264 272